PTR2570 CYQG-CYTZ

Flight info

Callsign PTR2570
Flight time N/A
Altitude 23000
Route HHOWE DCT BROKK DCT GGUCE DCT KEDBU DCT LINNG
Aircraft DH8D/M-SDE2E3FGRY/H

Departure

Time 2026-04-20 19:44
Airport Windsor International Airport (CYQG)

Arrival

Time N/A
Airport Billy Bishop Toronto City Airport (CYTZ)
Time Latitude Longitude Altitude Speed Heading
2026-04-20 19:30 42.26648 -82.95989 624 ft 0 kts 250°
2026-04-20 19:37 42.26648 -82.95990 624 ft 0 kts 250°
2026-04-20 19:38 42.26649 -82.95985 624 ft 2 kts 250°
2026-04-20 19:38 42.26654 -82.95966 624 ft 2 kts 254°
2026-04-20 19:38 42.26654 -82.95946 624 ft 2 kts 286°
2026-04-20 19:38 42.26651 -82.95934 624 ft 0 kts 299°
2026-04-20 19:40 42.26656 -82.95943 624 ft 6 kts 323°
2026-04-20 19:40 42.26716 -82.96001 624 ft 13 kts 296°
2026-04-20 19:41 42.26762 -82.96131 624 ft 16 kts 295°
2026-04-20 19:41 42.26811 -82.96268 626 ft 14 kts 321°
2026-04-20 19:41 42.26897 -82.96249 625 ft 11 kts 19°
2026-04-20 19:41 42.26996 -82.96208 624 ft 16 kts 15°
2026-04-20 19:42 42.27068 -82.96289 626 ft 14 kts 295°
2026-04-20 19:42 42.27113 -82.96420 627 ft 15 kts 295°
2026-04-20 19:42 42.27161 -82.96561 627 ft 17 kts 295°
2026-04-20 19:42 42.27214 -82.96710 627 ft 17 kts 296°
2026-04-20 19:43 42.27250 -82.96812 627 ft 18 kts 295°
2026-04-20 19:43 42.27320 -82.97005 627 ft 10 kts 322°
2026-04-20 19:43 42.27351 -82.96976 627 ft 2 kts 63°
2026-04-20 19:43 42.27373 -82.96920 627 ft 23 kts 62°
2026-04-20 19:44 42.27614 -82.96296 627 ft 119 kts 62°
2026-04-20 19:44 42.28070 -82.95112 853 ft 156 kts 61°
2026-04-20 19:44 42.28582 -82.93785 1584 ft 164 kts 59°
2026-04-20 19:44 42.29099 -82.92387 2208 ft 172 kts 62°
2026-04-20 19:45 42.29548 -82.90828 2796 ft 183 kts 78°
2026-04-20 19:45 42.29511 -82.89109 3447 ft 187 kts 93°
2026-04-20 19:45 42.29369 -82.87378 4105 ft 190 kts 93°
2026-04-20 19:45 42.29219 -82.85597 4786 ft 193 kts 93°
2026-04-20 19:46 42.29064 -82.83810 5492 ft 194 kts 93°
2026-04-20 19:46 42.28904 -82.81976 6175 ft 197 kts 92°
2026-04-20 19:46 42.28744 -82.80146 6883 ft 199 kts 92°
2026-04-20 19:46 42.28582 -82.78306 7542 ft 203 kts 91°
2026-04-20 19:47 42.28415 -82.76408 8210 ft 207 kts 91°
2026-04-20 19:47 42.28242 -82.74457 8907 ft 210 kts 90°
2026-04-20 19:47 42.28068 -82.72510 9584 ft 214 kts 89°
2026-04-20 19:47 42.27889 -82.70492 10278 ft 218 kts 89°